Other Public Products
Issued by NWS Grand Forks, ND

Home | Current Version | Previous Version | Text Only | Print | Product List | Glossary On
Versions: 1 2 3 4 5 6 7 8 9 10 11 12 13 14 15 16 17 18 19 20 21 22 23 24 25 26 27 28 29 30 31 32 33 34 35 36 37 38 39 40 41 42 43 44 45 46 47 48 49 50
000
FPUS83 KFGF 261231
OPUFGF
PRAIRIE TO PINES WEATHER ROUNDUP
NATIONAL WEATHER SERVICE EASTERN NORTH DAKOTA/GRAND FORKS ND
700 AM CDT TUE SEP 26 2017

 **SATELLITE DATA USED TO AUGMENT SKY COVER AT AUTOMATED STATIONS**
 *****  WEATHER ACROSS EASTERN NORTH DAKOTA  *****

CITY           SKY/WX    TMP DP  RH WIND       PRES   REMARKS
GRAND FORKS    LGT RAIN  49  49 100 N9        30.06R
6HR MIN TEMP:  49; 6HR MAX TEMP:  51; 6HR PCP:  0.08;

GRAND FORKS AF LGT RAIN  48  48  99 N9        30.07R
GRAND CITY NWS NOT AVBL
BUXTON           N/A     49  49  99 NW6         N/A
DEVILS LAKE    CLOUDY    45  43  93 N7        30.10S
6HR MIN TEMP:  45; 6HR MAX TEMP:  46;

FARGO          LGT RAIN  50  50 100 NW6       30.04R
6HR MIN TEMP:  50; 6HR MAX TEMP:  51; 6HR PCP:  0.22;

WAHPETON ARPT  CLOUDY    50  46  87 N7        30.03R
$$

 *****  WEATHER ACROSS CENTRAL AND WESTERN NORTH DAKOTA  *****

CITY           SKY/WX    TMP DP  RH WIND       PRES   REMARKS
JAMESTOWN      CLOUDY    47  46  97 N8        30.08R
6HR MIN TEMP:  47; 6HR MAX TEMP:  48; 6HR PCP:  0.08;

BISMARCK       CLOUDY    48  45  89 CALM      30.12R
6HR MIN TEMP:  46; 6HR MAX TEMP:  48;

MINOT          CLOUDY    49  44  83 SW6       30.09F
6HR MIN TEMP:  48; 6HR MAX TEMP:  49;

MINOT AFB      CLOUDY    47  45  91 SW3       30.08F
6HR MIN TEMP:  46; 6HR MAX TEMP:  49;

GARRISON         N/A     45  44  97 CALM      30.10S
6HR MIN TEMP:  45; 6HR MAX TEMP:  47; 6HR PCP:  0.01;

WILLISTON      CLOUDY    47  46  97 CALM      30.10S
6HR MIN TEMP:  47; 6HR MAX TEMP:  48;

DICKINSON      CLOUDY    44  44 100 CALM      30.06S
6HR MIN TEMP:  44; 6HR MAX TEMP:  45; 6HR PCP: TRACE;

HETTINGER      LGT RAIN  44  42  93 S7        30.09S
6HR MIN TEMP:  44; 6HR MAX TEMP:  45;

$$

 *****  OTHER OBSERVATIONS NORTHEAST NORTH DAKOTA  *****

CITY           SKY/WX    TMP DP  RH WIND       PRES   REMARKS
WALHALLA       FAIR     N/A N/A N/A NW7       30.10R
LANGDON        CLOUDY    45  45 100 MISG      30.10R
CAVALIER       CLOUDY    46  46 100 N7        30.08S
GRAFTON        CLOUDY    48  48 100 NW9       30.10R
CANDO          CLOUDY    43  43 100 N7        30.13R
FORT TOTTEN      N/A     47  45  94 N2        29.95S
ROLLA          CLOUDY    43  43 100 N5        30.12S
RUGBY          CLOUDY    45  45 100 NE5       30.11R
 ***** THE ABOVE OBSERVATIONS ARE NON NWS ARE NOT QUALITY
        CONTROLLED AND MAY MIS-REPORT RAIN FOR SNOW...
$$

 *****  OTHER OBSERVATIONS SOUTHEAST NORTH DAKOTA *****

CITY           SKY/WX    TMP DP  RH WIND       PRES   REMARKS
COOPERSTOWN    CLOUDY    48  46  93 N8        30.07F
VALLEY CITY    DRIZZLE   46  46 100 N8        30.06F
OAKES          NOT AVBL
GWINNER        CLOUDY    48  48 100 NW6       30.07R
SHEYENNE NWR     N/A     49  49 100 N5        29.95S
BUFFALO          N/A     48  46  93 SW9         N/A
WYNDMERE       NOT AVBL
 ***** THE ABOVE OBSERVATIONS ARE NON NWS ARE NOT QUALITY
       CONTROLLED AND MAY MIS-REPORT RAIN FOR SNOW...
$$

  *****  WEATHER ACROSS NORTHERN MINNESOTA  *****

CITY           SKY/WX    TMP DP  RH WIND       PRES   REMARKS
FLAG ISLAND    CLOUDY    50  46  87 NE7       30.05F
WARROAD        CLOUDY    48  46  93 N6        30.06S
ROSEAU         LGT RAIN  48  45  87 N6        30.06S
HALLOCK          N/A     50  48  93 N7        30.07R
THF RVR FALLS  LGT RAIN  49  48  97 N8        30.05S
6HR MIN TEMP:  49; 6HR MAX TEMP:  49; 6HR PCP:  0.04;

HALSTAD          N/A     49  48  96 N6          N/A
FOSSTON        CLOUDY    46  46 100 NE5       30.02S
BAUDETTE       RAIN      49  48  97 N8        30.05S
6HR MIN TEMP:  49; 6HR MAX TEMP:  50; 6HR PCP:  0.07;

WASKISH        LGT RAIN  48  48 100 NE8       30.01F
CROOKSTON      DRIZZLE   48  48 100 N6        30.06R
$$
  *****  WEATHER ACROSS CENTRAL AND WEST MINNESOTA  *****

CITY           SKY/WX    TMP DP  RH WIND       PRES   REMARKS
BEMIDJI        CLOUDY    48  48  98 N6        30.00R
6HR MIN TEMP:  48; 6HR MAX TEMP:  49; 6HR PCP:  0.24;

PARK RAPIDS    CLOUDY    51  49  92 N9        29.98R
6HR MIN TEMP:  51; 6HR MAX TEMP:  53; 6HR PCP:  0.16;

WADENA         LGT RAIN  50  50 100 NW7       29.98S
DETROIT LAKES  DRIZZLE   50  48  93 N6        30.02S
MOORHEAD       LGT RAIN  50  48  93 NW7       30.05R
FERGUS FALLS   CLOUDY    52  52 100 N8        30.02R
ELBOW LAKE     CLOUDY    51  51 100 W9        30.01R
MORRIS MN      NOT AVBL
STAPLES        CLOUDY    50  50 100 NW8       29.97S FOG
WHEATON        RAIN      50  48  93 NW6       30.04R
$$
  *****  WEATHER ELSEWHERE ACROSS MINNESOTA  *****

CITY           SKY/WX    TMP DP  RH WIND       PRES   REMARKS
DULUTH         LGT RAIN  53  53 100 E10       29.93R FOG
6HR MIN TEMP:  53; 6HR MAX TEMP:  56; 6HR PCP:  0.55;

INTRNTL FALLS  LGT RAIN  50  47  89 N5        30.02R
6HR MIN TEMP:  50; 6HR MAX TEMP:  52; 6HR PCP:  0.02;

ELY            RAIN      50  48  93 NE6       29.97R
CLOQUET        LGT RAIN  54  52  94 N7        29.93S
BRAINERD       LGT RAIN  53  52  96 N8        29.95R
6HR MIN TEMP:  53; 6HR MAX TEMP:  53; 6HR PCP:  0.27;

HIBBING        RAIN      50  50 100 NE5       29.97R FOG
6HR MIN TEMP:  50; 6HR MAX TEMP:  52; 6HR PCP:  0.50;

ALEXANDRIA     CLOUDY    52  51  97 N8        29.99S
6HR MIN TEMP:  52; 6HR MAX TEMP:  53; 6HR PCP:  0.20;

SAINT CLOUD    CLOUDY    53  53 100 NW6       29.94R
6HR MIN TEMP:  54; 6HR MAX TEMP:  55; 6HR PCP:  0.18;

MINNEAPOLIS    LGT RAIN  58  57  97 NW6       29.92S
6HR MIN TEMP:  58; 6HR MAX TEMP:  59; 6HR PCP:  0.11;

$$

  *****  WEATHER ACROSS SOUTH DAKOTA  *****

CITY           SKY/WX    TMP DP  RH WIND       PRES   REMARKS
SIOUX FALLS    CLOUDY    51  51 100 NW12      30.04R
6HR MIN TEMP:  51; 6HR MAX TEMP:  52; 6HR PCP:  0.22;

BROOKINGS      CLOUDY    49  48  97 NW12      30.04R
WATERTOWN      CLOUDY    48  48 100 NW13      30.03S
6HR MIN TEMP:  48; 6HR MAX TEMP:  49; 6HR PCP:  0.07;

HURON          CLOUDY    48  47  96 NW9       30.09R
6HR MIN TEMP:  48; 6HR MAX TEMP:  49; 6HR PCP:  0.01;

SISSETON         N/A     50  50 100 NW9       30.03R
ABERDEEN       CLOUDY    48  48 100 NW7       30.09R
6HR MIN TEMP:  48; 6HR MAX TEMP:  48; 6HR PCP:  0.08;

MITCHELL       CLOUDY    49  47  93 NW10      30.09R
PIERRE         FOG       41  40  96 SW6       30.10R VSB 1/4
6HR MIN TEMP:  41; 6HR MAX TEMP:  48;

MOBRIDGE       MOCLDY    45  43  93 N5        30.09R
RAPID CITY     CLEAR     39  37  93 SE5       30.09
$$

  *****  SOME WEATHER IN NEARBY STATES *****

CITY           SKY/WX    TMP DP  RH WIND       PRES   REMARKS
GLASGOW MT     FAIR      36  36 100 E9        30.08S
6HR MIN TEMP:  36; 6HR MAX TEMP:  40;

GREAT FALLS MT CLOUDY    49  40  71 SW9       30.09R
6HR MIN TEMP:  48; 6HR MAX TEMP:  53; 6HR PCP: TRACE;

CHEYENNE WY    FAIR      38  35  89 W12       30.16S
6HR MIN TEMP:  38; 6HR MAX TEMP:  42;

SCOTTSBLUFF NE FAIR      37  35  92 E5        30.14R
6HR MIN TEMP:  37; 6HR MAX TEMP:  44;

OMAHA NE       CLOUDY    56  52  86 NW10      30.03R FOG
6HR MIN TEMP:  56; 6HR MAX TEMP:  59; 6HR PCP:  0.04;

DES MOINES IA  CLOUDY    67  66  97 W5        29.95R
6HR MIN TEMP:  66; 6HR MAX TEMP:  67; 6HR PCP:  0.03;

DAVENPORT IA   FAIR      68  66  93 SE6       29.95R
6HR MIN TEMP:  67; 6HR MAX TEMP:  71; 6HR PCP: TRACE;

CHICAGO IL     MOCLDY    73  60  63 SW5       29.95R
6HR MIN TEMP:  70; 6HR MAX TEMP:  74;

EAU CLAIRE WI  LGT RAIN  63  63 100 S6        29.90R
6HR MIN TEMP:  63; 6HR MAX TEMP:  64; 6HR PCP: TRACE;

LA CROSSE WI   MOCLDY    68  66  93 S8        29.91R
6HR MIN TEMP:  68; 6HR MAX TEMP:  69; 6HR PCP:  0.01;

$$

  *****  SOME NATIONAL WEATHER *****

CITY           SKY/WX    TMP DP  RH WIND       PRES   REMARKS
LA GUARDIA NY  CLOUDY    69  68  96 NE6       30.04R
6HR MIN TEMP:  68; 6HR MAX TEMP:  71;



USA.gov is the U.S. government's official web portal to all federal, state and local government web resources and services.